Date,TemperatureHighF,TemperatureAvgF,TemperatureLowF,DewpointHighF,DewpointAvgF,DewpointLowF,HumidityHigh,HumidityAvg,HumidityLow,PressureMaxIn,PressureMinIn,WindSpeedMaxMPH,WindSpeedAvgMPH,GustSpeedMaxMPH,PrecipitationSumIn
2013-1-1,48,41,36,46,36,28,93,81,72,0.00,40.00,9,7,17,0.01
2013-1-2,41,35,28,29,27,25,87,72,59,0.00,40.00,8,5,14,0.01
2013-1-3,50,37,26,31,27,23,89,68,42,0.00,40.00,9,4,15,0.00
2013-1-4,54,44,38,36,32,28,90,65,40,0.00,40.00,5,3,9,0.01
2013-1-5,53,43,35,39,36,33,93,78,57,0.00,40.00,7,5,14,0.01
2013-1-6,57,41,32,35,28,22,93,65,29,0.00,40.00,9,4,15,0.00
2013-1-7,56,41,27,37,29,22,91,65,40,0.00,40.00,8,3,14,0.00
2013-1-8,48,47,45,46,41,31,95,82,54,0.00,40.00,7,5,12,1.54
2013-1-9,57,53,46,55,51,45,96,94,93,0.00,40.00,12,7,26,2.79
2013-1-10,57,54,51,56,48,44,95,81,68,0.00,40.00,10,7,17,0.12
2013-1-11,73,60,52,61,49,42,88,66,45,0.00,40.00,14,10,27,0.02
2013-1-12,67,56,38,65,53,31,96,87,75,0.00,40.00,13,8,24,0.20
2013-1-13,44,36,32,31,24,18,78,61,46,0.00,40.00,12,10,23,0.09
2013-1-14,44,34,29,25,20,17,70,56,41,0.00,40.00,10,7,18,0.00
2013-1-15,38,34,29,30,25,18,87,70,51,0.00,40.00,11,7,18,0.10
2013-1-16,50,37,27,22,20,17,73,51,31,0.00,40.00,6,4,14,0.04
2013-1-17,60,44,34,35,28,19,71,53,33,0.00,40.00,7,3,14,0.00
2013-1-18,63,47,31,36,32,28,91,60,32,0.00,40.00,12,6,19,0.00
2013-1-19,65,54,44,46,40,32,80,61,45,0.00,40.00,12,8,20,0.00
2013-1-20,71,55,39,49,40,32,93,62,29,0.00,40.00,8,4,14,0.00
2013-1-21,56,45,39,40,32,27,92,62,39,0.00,40.00,9,4,17,0.00
2013-1-22,67,51,35,47,37,24,74,60,46,0.00,40.00,8,5,13,0.00
2013-1-23,74,62,53,55,51,47,83,68,51,0.00,40.00,12,8,20,0.00
2013-1-24,80,66,54,59,55,47,86,69,44,0.00,40.00,9,6,18,0.00
2013-1-25,54,49,48,47,43,39,94,79,67,0.00,40.00,8,5,13,0.00
2013-1-26,54,49,45,49,45,38,94,86,67,0.00,40.00,5,3,10,0.00
2013-1-27,75,62,50,63,57,48,96,82,54,0.00,40.00,15,9,27,0.00
2013-1-28,78,72,67,65,63,61,86,74,58,0.00,40.00,15,12,27,0.00
2013-1-29,79,66,55,65,58,35,91,74,47,0.00,40.00,17,11,33,0.15
2013-1-30,55,48,39,35,27,17,67,45,28,0.00,40.00,15,8,26,0.02
2013-1-31,69,56,37,26,22,19,48,28,15,0.00,40.00,11,8,24,0.00
2013-2-1,61,47,31,38,27,17,57,45,32,0.00,40.00,12,6,24,0.00
2013-2-2,68,56,44,46,38,30,75,53,30,0.00,40.00,12,7,20,0.00
2013-2-3,71,54,36,39,29,23,80,45,17,0.00,40.00,11,5,16,0.00
2013-2-4,73,62,55,56,47,26,87,61,29,0.00,40.00,12,8,19,0.01
2013-2-5,71,62,58,60,58,55,96,87,65,0.00,40.00,8,4,16,0.01
2013-2-6,76,64,57,63,57,53,95,80,49,0.00,40.00,10,7,19,0.01
2013-2-7,80,65,56,58,53,41,89,70,28,0.00,40.00,11,9,23,0.01
2013-2-8,66,54,45,47,32,18,73,49,16,0.00,40.00,12,6,21,0.00
2013-2-9,59,51,47,57,45,34,95,81,56,0.00,40.00,11,8,21,0.01
2013-2-10,68,60,49,64,39,23,94,52,20,0.00,40.00,16,7,33,0.55
2013-2-11,54,51,46,40,34,28,74,53,40,0.00,40.00,10,5,19,0.09
2013-2-12,51,47,44,47,44,39,93,86,72,0.00,40.00,11,5,23,0.39
2013-2-13,59,46,39,39,34,28,84,66,36,0.00,40.00,11,6,23,0.03
2013-2-14,70,53,40,40,35,27,79,55,21,0.00,40.00,9,5,15,0.01
2013-2-15,54,48,36,37,28,18,61,46,29,0.00,40.00,12,8,20,0.01
2013-2-16,57,43,28,29,24,20,81,50,27,0.00,40.00,7,4,12,0.00
2013-2-17,71,57,43,43,32,28,59,41,21,0.00,40.00,16,10,28,0.00
2013-2-18,76,62,53,56,44,32,78,55,26,0.00,40.00,16,12,28,0.00
2013-2-19,63,52,39,33,25,19,68,38,19,0.00,40.00,9,5,16,0.01
2013-2-20,51,45,42,40,37,30,87,74,45,0.00,40.00,7,6,18,0.19
2013-2-21,69,53,42,48,38,25,92,62,20,0.00,40.00,11,7,23,0.14
2013-2-22,48,40,32,38,27,23,77,59,39,0.00,40.00,12,7,17,0.12
2013-2-23,56,42,28,29,26,22,79,55,33,0.00,40.00,8,4,12,0.00
2013-2-24,72,56,40,46,36,27,68,50,32,0.00,40.00,10,7,21,0.00
2013-2-25,59,52,41,51,39,27,91,64,35,0.00,40.00,16,10,28,0.04
2013-2-26,59,46,40,33,31,28,70,57,32,0.00,40.00,14,8,28,0.04
2013-2-27,57,47,38,34,27,19,74,48,22,0.00,40.00,13,8,22,0.00
2013-2-28,60,47,37,28,26,22,67,45,25,0.00,40.00,12,8,21,0.00
2013-3-1,58,44,31,31,27,21,77,53,32,0.00,40.00,9,4,18,0.00
2013-3-2,56,43,32,29,24,21,71,49,27,0.00,40.00,11,7,21,0.00
2013-3-3,72,56,36,38,28,21,54,34,22,0.00,40.00,17,11,31,0.00
2013-3-4,87,68,56,46,40,30,64,41,13,0.00,40.00,17,12,31,0.00
2013-3-5,68,52,43,43,26,16,64,38,21,0.00,40.00,15,11,30,0.00
2013-3-6,62,47,30,23,19,14,63,36,15,0.00,40.00,8,4,14,0.00
2013-3-7,72,58,44,35,25,16,42,29,15,0.00,40.00,14,8,21,0.00
2013-3-8,62,58,55,56,50,35,84,73,42,0.00,40.00,12,9,20,0.00
2013-3-9,69,64,60,65,59,53,94,84,76,0.00,40.00,15,12,28,0.79
2013-3-10,64,52,37,62,39,29,94,62,44,0.00,40.00,13,8,24,1.00
2013-3-11,62,45,31,32,25,17,88,52,20,0.00,40.00,9,5,16,0.01
2013-3-12,69,56,45,29,24,19,45,30,19,0.00,40.00,8,6,16,0.00
2013-3-13,71,54,38,36,33,27,78,49,26,0.00,40.00,7,4,14,0.00
2013-3-14,77,62,47,44,39,31,64,43,29,0.00,40.00,13,8,21,0.00
2013-3-15,81,69,57,55,46,38,79,49,24,0.00,40.00,14,11,25,0.00
2013-3-16,81,70,59,57,52,42,77,55,38,0.00,40.00,16,13,26,0.00
2013-3-17,74,67,57,60,55,48,82,66,45,0.00,40.00,16,7,29,0.00
2013-3-18,70,64,57,63,50,38,89,62,41,0.00,40.00,12,7,22,0.00
2013-3-19,69,59,45,45,38,31,71,47,32,0.00,40.00,12,6,19,0.00
2013-3-20,69,58,44,38,31,23,66,38,19,0.00,40.00,9,5,16,0.00
2013-3-21,69,61,53,56,41,26,72,48,33,0.00,40.00,19,11,29,0.00
2013-3-22,66,56,47,60,50,42,89,80,67,0.00,40.00,16,9,27,0.00
2013-3-23,56,50,44,49,46,42,93,87,76,0.00,40.00,9,5,21,0.88
2013-3-24,54,47,39,49,29,21,91,52,35,0.00,40.00,14,10,28,0.01
2013-3-25,55,44,29,24,20,15,67,42,23,0.00,40.00,11,7,21,0.00
2013-3-26,59,44,29,25,20,15,62,40,23,0.00,40.00,6,4,11,0.00
2013-3-27,70,54,43,38,28,21,46,38,27,0.00,40.00,14,10,25,0.00
2013-3-28,70,68,66,56,55,53,69,63,60,0.00,40.00,11,9,21,0.00
2013-3-29,75,67,59,57,56,54,84,68,52,0.00,40.00,13,9,21,0.00
2013-3-30,76,67,54,63,57,-100,94,76,59,0.00,40.00,12,7,29,0.40
2013-3-31,75,68,60,63,56,48,88,67,46,0.00,40.00,11,7,22,0.02
2013-4-1,81,65,48,56,49,45,92,61,29,0.00,40.00,6,3,14,0.01
2013-4-2,69,66,54,64,59,43,90,79,59,0.00,40.00,16,8,26,0.36
2013-4-3,54,48,45,49,45,40,94,89,67,0.00,40.00,14,7,28,1.73
2013-4-4,50,46,42,42,40,38,92,80,65,0.00,40.00,9,7,17,0.43
2013-4-5,68,54,38,48,43,36,92,68,47,0.00,40.00,7,4,12,0.01
2013-4-6,76,65,56,57,51,45,75,61,49,0.00,40.00,15,11,26,0.00
2013-4-7,73,67,62,61,58,55,83,74,63,0.00,40.00,15,11,29,0.00
2013-4-8,75,71,66,65,62,58,79,73,67,0.00,40.00,16,12,29,0.00
2013-4-9,81,74,67,66,63,61,87,71,56,0.00,40.00,19,11,31,0.00
2013-4-10,74,49,40,66,44,37,90,81,69,0.00,40.00,12,8,20,0.55
2013-4-11,63,49,41,39,33,30,75,57,33,0.00,40.00,9,5,17,0.02
2013-4-12,78,61,45,49,42,35,76,52,31,0.00,40.00,6,4,14,0.00
2013-4-13,77,67,57,49,46,41,67,49,35,0.00,40.00,10,7,19,0.00
2013-4-14,81,69,58,64,57,47,81,65,53,0.00,40.00,15,10,24,0.00
2013-4-15,87,76,68,67,65,63,87,70,50,0.00,40.00,15,12,25,0.00
2013-4-16,88,78,71,67,65,62,83,66,47,0.00,40.00,15,11,25,0.00
2013-4-17,85,77,72,70,67,65,91,72,53,0.00,40.00,18,12,33,0.00
2013-4-18,76,56,47,70,47,33,92,72,47,0.00,40.00,18,11,34,1.09
2013-4-19,65,51,41,35,31,26,72,49,24,0.00,40.00,10,6,19,0.01
2013-4-20,71,58,48,36,31,27,52,37,22,0.00,40.00,13,8,24,0.00
2013-4-21,72,60,46,51,45,35,77,58,42,0.00,40.00,13,6,20,0.00
2013-4-22,79,66,54,57,52,45,82,60,47,0.00,40.00,14,8,22,0.00
2013-4-23,68,56,44,62,49,38,93,79,68,0.00,40.00,14,10,24,0.00
2013-4-24,63,51,39,38,35,31,85,59,37,0.00,40.00,11,7,22,0.02
2013-4-25,74,63,49,44,41,34,61,45,32,0.00,40.00,7,4,18,0.00
2013-4-26,77,68,60,66,55,42,75,63,48,0.00,40.00,12,7,22,0.00
2013-4-27,75,68,56,66,59,52,91,74,54,0.00,40.00,12,6,21,0.00
2013-4-28,83,67,53,67,59,51,93,77,53,0.00,40.00,7,4,14,0.00
2013-4-29,85,73,62,66,61,57,91,69,41,0.00,40.00,10,6,19,0.00
2013-4-30,81,76,65,65,62,55,77,62,51,0.00,40.00,8,6,17,0.00
2013-5-1,83,72,65,66,63,59,92,77,52,0.00,40.00,7,5,14,0.00
2013-5-2,71,52,45,61,45,36,86,75,67,0.00,40.00,16,11,26,0.00
2013-5-3,66,52,41,37,32,28,73,51,24,0.00,40.00,13,9,24,0.00
2013-5-4,74,60,42,38,32,24,67,39,20,0.00,40.00,10,5,20,0.00
2013-5-5,71,57,47,48,41,34,75,57,40,0.00,40.00,9,5,16,0.00
2013-5-6,77,61,46,52,48,43,89,65,40,0.00,40.00,4,2,8,0.00
2013-5-7,85,70,53,56,52,49,87,57,32,0.00,40.00,6,3,14,0.00
2013-5-8,86,74,63,57,54,50,69,50,34,0.00,40.00,12,8,22,0.00
2013-5-9,77,69,65,66,62,53,94,79,47,0.00,40.00,13,7,23,0.40
2013-5-10,81,71,65,66,61,-100,95,76,50,0.00,40.00,7,3,13,0.09
2013-5-11,80,69,61,60,50,-100,83,56,25,0.00,40.00,9,5,19,0.00
2013-5-12,79,68,57,52,41,36,71,42,21,0.00,40.00,8,4,15,0.00
2013-5-13,87,72,55,51,44,34,54,38,25,0.00,40.00,9,7,17,0.00
2013-5-14,86,74,64,60,55,48,74,52,31,0.00,40.00,13,8,23,0.00
2013-5-15,77,72,70,70,66,59,93,80,60,0.00,40.00,14,10,25,0.12
2013-5-16,82,63,62,71,40,-100,94,83,64,0.00,40.00,12,7,25,0.82
2013-5-17,89,78,73,73,62,-100,92,75,55,0.00,40.00,14,8,21,0.00
2013-5-18,92,82,72,71,69,66,84,67,49,0.00,40.00,15,11,27,0.00
2013-5-19,89,81,70,69,67,63,85,64,51,0.00,40.00,16,13,29,0.00
2013-5-20,89,80,74,70,68,64,80,66,49,0.00,40.00,17,13,30,0.00
2013-5-21,84,72,62,70,64,56,91,78,56,0.00,40.00,20,10,39,0.35
2013-5-22,88,69,54,65,58,52,95,72,34,0.00,40.00,5,3,10,0.18
2013-5-23,86,77,71,74,69,60,93,76,64,0.00,40.00,10,6,18,0.00
2013-5-24,85,77,67,73,68,60,91,76,59,0.00,40.00,10,5,26,0.19
2013-5-25,83,72,66,72,67,63,92,85,67,0.00,40.00,11,6,26,0.39
2013-5-26,87,78,71,71,69,67,92,74,56,0.00,40.00,13,10,20,0.02
2013-5-27,87,79,72,69,67,65,84,68,53,0.00,40.00,14,11,24,0.00
2013-5-28,86,79,72,68,66,64,82,66,52,0.00,40.00,16,11,27,0.00
2013-5-29,84,77,71,70,68,65,91,76,60,0.00,40.00,19,12,32,0.11
2013-5-30,90,81,74,73,70,68,86,70,52,0.00,40.00,16,12,29,0.11
2013-5-31,90,82,77,73,71,69,83,69,51,0.00,40.00,15,12,25,0.01
2013-6-1,89,81,75,74,70,65,78,71,57,0.00,40.00,15,9,28,0.00
2013-6-2,85,76,65,67,56,47,80,53,29,0.00,40.00,9,5,15,0.00
2013-6-3,93,76,60,60,56,52,82,54,29,0.00,40.00,7,4,12,0.00
2013-6-4,93,81,71,69,65,60,80,59,40,0.00,40.00,13,8,21,0.00
2013-6-5,93,82,73,70,66,61,83,60,38,0.00,40.00,13,6,23,0.00
2013-6-6,80,74,69,69,66,63,93,79,59,0.00,40.00,9,5,15,1.02
2013-6-7,86,73,61,66,59,52,94,67,35,0.00,40.00,7,4,12,0.02
2013-6-8,90,76,61,60,58,56,87,56,37,0.00,40.00,8,5,17,0.00
2013-6-9,89,78,68,69,66,59,93,68,47,0.00,40.00,10,6,18,0.07
2013-6-10,99,85,69,70,63,56,84,53,25,0.00,40.00,9,6,15,0.07
2013-6-11,92,84,76,74,69,61,84,61,42,0.00,40.00,11,8,20,0.00
2013-6-12,95,85,75,72,68,64,88,61,39,0.00,40.00,11,8,20,0.00
2013-6-13,99,87,76,72,67,64,80,55,34,0.00,40.00,8,6,14,0.00
2013-6-14,96,85,75,73,67,65,87,57,38,0.00,40.00,6,3,11,0.02
2013-6-15,91,83,74,73,69,66,84,65,45,0.00,40.00,8,5,15,0.02
2013-6-16,96,85,76,72,69,62,86,60,35,0.00,40.00,9,6,17,0.00
2013-6-17,93,82,69,74,70,66,93,68,45,0.00,40.00,13,6,24,0.65
2013-6-18,87,77,70,73,69,65,92,78,56,0.00,40.00,9,4,24,0.88
2013-6-19,95,80,69,76,70,66,94,76,46,0.00,40.00,7,4,14,0.02
2013-6-20,95,82,76,71,70,68,84,68,42,0.00,40.00,12,8,20,0.02
2013-6-22,95,90,81,72,67,63,75,48,37,0.00,40.00,13,9,19,0.00
2013-6-23,96,86,76,72,67,63,81,56,36,0.00,40.00,13,10,21,0.00
2013-6-24,96,86,76,72,67,62,82,55,35,0.00,40.00,12,9,23,0.00
2013-6-25,97,87,77,72,66,60,77,53,33,0.00,40.00,14,11,25,0.00
2013-6-26,98,87,76,71,68,63,80,54,38,0.00,40.00,13,10,22,0.00
2013-6-27,102,89,78,73,68,61,76,52,31,0.00,40.00,10,7,17,0.00
2013-6-28,104,90,78,68,63,60,64,44,26,0.00,40.00,8,5,15,0.00
2013-6-29,99,87,72,72,62,56,85,47,25,0.00,40.00,9,4,15,0.00
2013-6-30,93,83,71,66,57,52,80,45,28,0.00,40.00,9,6,19,0.00
2013-7-1,88,78,64,63,56,51,81,48,30,0.00,40.00,10,5,19,0.00
2013-7-2,90,78,62,61,52,45,83,45,24,0.00,40.00,8,4,15,0.00
2013-7-3,94,80,62,61,51,45,66,40,19,0.00,40.00,5,2,16,0.00
2013-7-4,98,83,70,63,56,47,68,43,20,0.00,40.00,8,5,17,0.00
2013-7-5,100,85,73,65,58,49,67,43,23,0.00,40.00,9,6,15,0.00
2013-7-6,99,85,74,68,60,55,65,46,24,0.00,40.00,9,6,19,0.00
2013-7-7,100,88,75,71,64,58,71,48,29,0.00,40.00,8,6,17,0.00
2013-7-8,98,85,76,73,68,60,80,60,34,0.00,40.00,12,7,19,0.00
2013-7-9,100,88,77,73,64,57,79,48,24,0.00,40.00,9,7,17,0.00
2013-7-10,102,89,82,73,60,-100,71,42,25,0.00,40.00,10,6,17,0.00
2013-7-11,103,89,80,71,67,61,72,51,31,0.00,40.00,10,6,17,0.00
2013-7-12,103,87,73,73,68,60,87,57,27,0.00,40.00,6,3,13,0.00
2013-7-13,101,91,79,70,65,57,70,44,29,0.00,40.00,8,5,16,0.00
2013-7-14,84,73,68,69,63,55,93,74,41,0.00,40.00,9,4,15,0.37
2013-7-15,74,70,66,72,67,65,95,93,88,0.00,40.00,4,3,9,1.09
2013-7-16,89,81,73,74,71,68,92,75,51,0.00,40.00,6,4,14,0.38
2013-7-17,88,77,71,75,71,63,94,82,55,0.00,40.00,5,3,21,0.46
2013-7-18,95,83,70,77,71,66,95,71,42,0.00,40.00,6,3,14,0.30
2013-7-19,96,83,74,74,69,64,88,66,40,0.00,40.00,10,5,21,0.08
2013-7-20,95,79,74,74,68,-100,86,72,41,0.00,40.00,7,4,12,0.53
2013-7-21,96,84,75,74,70,64,87,66,38,0.00,40.00,10,6,21,0.01
2013-7-22,96,86,77,75,71,66,87,63,40,0.00,40.00,11,8,19,0.00
2013-7-23,98,88,78,75,70,62,83,58,36,0.00,40.00,11,8,19,0.00
2013-7-24,99,86,79,73,68,63,75,57,37,0.00,40.00,8,6,17,0.00
2013-7-25,97,85,75,77,70,66,80,63,42,0.00,40.00,6,4,14,0.00
2013-7-26,96,84,78,78,71,68,86,67,43,0.00,40.00,10,6,20,0.10
2013-7-27,90,80,72,73,66,59,83,64,37,0.00,40.00,9,6,18,0.10
2013-7-28,94,82,68,70,67,62,90,63,41,0.00,40.00,6,4,14,0.00
2013-7-29,97,86,77,75,69,60,85,61,34,0.00,40.00,13,8,19,0.00
2013-7-30,100,88,78,72,67,59,77,51,35,0.00,40.00,14,9,22,0.00
2013-7-31,103,90,79,71,66,61,69,47,32,0.00,40.00,10,6,20,0.00
2013-8-1,103,91,77,72,67,62,77,48,31,0.00,40.00,6,3,14,0.00
2013-8-2,103,91,81,69,66,59,67,45,27,0.00,40.00,9,7,17,0.00
2013-8-3,102,90,79,71,65,59,68,46,29,0.00,40.00,9,7,17,0.00
2013-8-4,101,89,79,72,66,59,73,49,28,0.00,40.00,10,6,17,0.00
2013-8-5,102,91,80,69,64,58,66,43,27,0.00,40.00,9,7,16,0.00
2013-8-6,104,91,79,70,64,54,70,44,25,0.00,40.00,10,8,21,0.00
2013-8-7,106,92,80,71,65,59,70,44,25,0.00,40.00,12,8,21,0.00
2013-8-8,103,91,80,72,65,54,73,46,25,0.00,40.00,11,7,17,0.00
2013-8-9,104,91,80,72,63,51,69,42,20,0.00,40.00,11,6,17,0.00
2013-8-10,99,88,73,75,69,61,86,55,37,0.00,40.00,7,4,13,0.00
2013-8-11,103,88,76,72,67,63,75,52,29,0.00,40.00,8,4,13,0.00
2013-8-12,101,88,77,71,67,61,79,53,30,0.00,40.00,8,5,13,0.00
2013-8-13,99,84,77,73,65,-100,85,56,37,0.00,40.00,9,6,16,0.20
2013-8-14,91,79,73,75,72,67,93,79,50,0.00,40.00,12,4,19,0.67
2013-8-15,91,72,71,71,53,-100,85,63,43,0.00,40.00,5,3,15,0.26
2013-8-16,89,76,69,68,57,-100,79,58,40,0.00,40.00,10,5,23,0.01
2013-8-17,90,77,66,62,56,-100,80,53,32,0.00,40.00,8,5,15,0.00
2013-8-18,92,80,70,65,60,56,69,51,33,0.00,40.00,6,4,13,0.00
2013-8-19,98,79,71,65,50,-100,71,46,25,0.00,40.00,7,4,13,0.00
2013-8-20,99,83,73,64,56,-100,66,44,22,0.00,40.00,7,5,12,0.00
2013-8-21,97,85,74,69,63,57,74,51,33,0.00,40.00,7,5,17,0.00
2013-8-22,101,88,79,70,66,60,70,49,30,0.00,40.00,7,4,16,0.00
2013-8-23,102,89,79,72,66,61,71,49,27,0.00,40.00,8,5,15,0.00
2013-8-24,103,88,78,71,63,-100,68,46,26,0.00,40.00,7,4,17,0.00
2013-8-25,99,88,75,70,65,61,73,49,30,0.00,40.00,7,4,18,0.00
2013-8-26,99,86,74,70,64,58,80,52,27,0.00,40.00,8,6,19,0.00
2013-8-27,92,80,73,71,68,62,86,70,37,0.00,40.00,9,6,19,0.00
2013-8-28,100,94,85,67,62,59,46,35,27,0.00,40.00,7,5,12,0.00
2013-8-29,103,89,77,68,62,59,62,43,24,0.00,40.00,6,4,10,0.00
2013-8-30,105,91,80,67,61,57,59,39,21,0.00,40.00,8,5,13,0.00
2013-8-31,107,91,80,68,59,-100,60,38,21,0.00,40.00,8,5,17,0.00
2013-9-1,105,93,82,68,64,58,59,40,23,0.00,40.00,8,6,15,0.00
2013-9-2,93,82,76,76,72,68,91,73,44,0.00,40.00,5,3,15,0.20
2013-9-3,100,85,74,70,65,56,85,55,29,0.00,40.00,5,3,10,0.02
2013-9-4,102,87,70,72,63,56,82,49,22,0.00,40.00,7,4,16,0.00
2013-9-5,101,88,76,71,65,58,75,50,25,0.00,40.00,7,4,12,0.00
2013-9-6,102,87,76,70,64,59,73,48,25,0.00,40.00,6,4,14,0.00
2013-9-7,101,87,77,71,62,-100,75,48,25,0.00,40.00,9,5,20,0.00
2013-9-8,99,84,69,71,64,58,88,55,29,0.00,40.00,9,5,15,0.00
2013-9-9,97,85,72,70,64,59,80,53,32,0.00,40.00,9,6,19,0.00
2013-9-10,97,84,74,71,64,56,79,54,29,0.00,40.00,7,5,16,0.00
2013-9-11,98,84,73,71,66,60,84,57,31,0.00,40.00,7,5,15,0.00
2013-9-12,98,86,76,68,65,60,69,52,33,0.00,40.00,6,4,13,0.00
2013-9-13,97,86,73,70,65,59,78,51,30,0.00,40.00,6,4,15,0.00
2013-9-14,97,84,76,66,60,-100,65,47,32,0.00,40.00,7,5,19,0.00
2013-9-15,98,84,75,67,61,58,59,46,33,0.00,40.00,6,5,16,0.00
2013-9-16,95,86,76,72,63,57,73,49,29,0.00,40.00,5,4,12,0.00
2013-9-17,95,86,77,68,63,60,63,47,33,0.00,40.00,7,4,14,0.00
2013-9-18,84,82,79,67,63,60,67,55,45,0.00,40.00,6,5,12,0.00
2013-9-19,91,82,72,72,67,60,93,62,44,0.00,40.00,9,5,19,0.31
2013-9-20,73,73,71,71,70,65,95,91,82,0.00,40.00,10,6,19,2.51
2013-9-21,84,72,62,65,50,-100,83,54,24,0.00,40.00,8,7,16,0.01
2013-9-22,85,69,54,57,51,46,90,57,28,0.00,40.00,6,3,14,0.00
2013-9-23,88,73,61,57,52,46,70,50,24,0.00,40.00,8,5,15,0.00
2013-9-24,94,80,64,67,59,51,88,55,25,0.00,40.00,7,4,12,0.00
2013-9-25,96,78,57,61,50,44,79,44,18,0.00,40.00,6,3,12,0.00
2013-9-26,95,83,74,58,52,46,51,37,23,0.00,40.00,10,7,20,0.00
2013-9-27,88,80,71,70,65,56,74,61,50,0.00,40.00,11,8,19,0.00
2013-9-28,86,76,67,74,68,-100,92,79,58,0.00,40.00,10,8,20,1.07
2013-9-29,82,72,62,62,56,46,84,61,30,0.00,40.00,7,5,15,0.01
2013-9-30,88,72,56,61,54,49,84,57,27,0.00,40.00,6,3,13,0.00
2013-10-1,84,78,76,68,65,62,75,65,48,0.00,40.00,6,4,11,0.00
2013-10-2,88,79,72,71,69,66,91,73,51,0.00,40.00,10,7,17,0.00
2013-10-3,90,80,73,72,69,65,89,70,45,0.00,40.00,13,9,20,0.00
2013-10-4,90,80,73,70,68,64,88,68,47,0.00,40.00,11,9,21,0.00
2013-10-5,80,66,52,69,57,43,90,74,54,0.00,40.00,12,9,20,0.34
2013-10-6,76,61,47,51,42,31,92,58,20,0.00,40.00,8,4,17,0.34
2013-10-7,83,66,47,49,42,34,83,50,19,0.00,40.00,5,3,10,0.01
2013-10-8,83,68,50,48,42,37,70,41,23,0.00,40.00,7,4,13,0.00
2013-10-9,84,70,58,56,52,48,80,55,32,0.00,40.00,9,6,19,0.00
2013-10-10,85,74,63,63,57,51,76,58,41,0.00,40.00,10,7,17,0.00
2013-10-11,85,76,68,69,65,60,84,70,54,0.00,40.00,13,9,22,0.00
2013-10-12,91,78,70,74,67,-100,90,74,55,0.00,40.00,10,6,19,0.00
2013-10-13,76,71,65,68,66,63,93,83,74,0.00,40.00,7,3,12,0.00
2013-10-14,75,71,69,71,68,65,93,90,83,0.00,40.00,13,7,20,0.55
2013-10-15,76,67,54,72,64,52,92,88,82,0.00,40.00,11,8,20,0.96
2013-10-16,66,58,53,53,50,45,92,77,52,0.00,40.00,9,6,16,1.11
2013-10-17,73,59,43,48,44,40,91,62,36,0.00,40.00,7,4,15,0.01
2013-10-18,71,62,53,54,50,47,84,68,45,0.00,40.00,12,5,21,0.00
2013-10-19,66,52,43,52,37,-100,83,61,33,0.00,40.00,12,6,21,0.00
2013-10-20,72,58,42,45,40,36,80,54,30,0.00,40.00,14,7,20,0.00
2013-10-21,73,62,55,61,52,45,84,69,51,0.00,40.00,14,6,20,0.00
2013-10-22,76,59,41,47,42,38,91,60,26,0.00,40.00,5,3,13,0.00
2013-10-23,83,66,53,50,44,38,72,47,26,0.00,40.00,7,4,12,0.00
2013-10-24,81,68,54,50,46,42,72,48,32,0.00,40.00,9,5,15,0.00
2013-10-25,72,60,52,52,45,41,77,59,42,0.00,40.00,9,5,15,0.00
2013-10-26,77,63,56,62,52,-100,92,69,58,0.00,40.00,10,7,22,1.17
2013-10-27,68,62,59,59,57,54,93,82,64,0.00,40.00,7,3,15,1.18
2013-10-28,76,66,59,66,59,-100,93,83,70,0.00,40.00,9,6,17,0.01
2013-10-29,77,72,69,70,66,65,89,84,75,0.00,40.00,10,8,19,0.00
2013-10-30,73,70,66,69,66,63,92,88,83,0.00,40.00,12,8,22,0.05
2013-10-31,75,68,53,68,54,39,93,66,28,0.00,40.00,10,6,20,0.03
2013-11-1,77,62,48,52,46,42,82,57,34,0.00,40.00,10,5,21,0.00
2013-11-2,68,57,46,44,36,-100,81,50,28,0.00,40.00,9,5,17,0.00
2013-11-3,67,56,43,44,38,33,76,51,32,0.00,40.00,11,7,21,0.00
2013-11-4,60,57,52,58,52,44,93,84,60,0.00,40.00,9,6,20,0.71
2013-11-5,70,65,60,66,63,58,93,90,85,0.00,40.00,12,7,20,0.76
2013-11-6,71,57,44,67,49,38,89,75,52,0.00,40.00,12,8,22,0.09
2013-11-7,63,48,36,42,37,33,91,69,34,0.00,40.00,5,3,10,0.09
2013-11-8,65,54,40,43,38,35,83,59,34,0.00,40.00,9,5,16,0.00
2013-11-9,69,59,55,52,44,-100,70,59,52,0.00,40.00,10,7,18,0.00
2013-11-10,65,57,48,50,47,44,86,71,54,0.00,40.00,4,2,13,0.00
2013-11-11,75,59,44,52,48,41,91,70,44,0.00,40.00,5,3,10,0.00
2013-11-12,59,50,36,54,32,15,88,55,28,0.00,40.00,12,8,24,0.00
2013-11-13,53,39,27,25,21,16,72,50,30,0.00,40.00,5,3,12,0.00
2013-11-14,60,48,32,44,29,22,70,49,23,0.00,40.00,13,8,21,0.00
2013-11-15,74,62,52,57,52,44,86,71,48,0.00,40.00,13,8,21,0.00
2013-11-16,78,69,64,68,60,-100,84,74,57,0.00,40.00,14,11,24,0.00
2013-11-17,88,76,63,68,57,37,88,58,24,0.00,40.00,12,7,24,0.00
2013-11-18,72,64,56,37,29,27,36,27,20,0.00,40.00,11,7,19,0.00
2013-11-19,71,60,54,38,34,28,51,38,23,0.00,40.00,9,5,17,0.00
2013-11-20,65,57,49,52,42,34,70,57,46,0.00,40.00,10,7,17,0.00
2013-11-21,75,66,45,68,61,42,92,86,70,0.00,40.00,12,6,25,0.64
2013-11-22,45,37,35,42,34,32,91,88,84,0.00,40.00,14,11,25,0.80
2013-11-23,41,37,36,36,31,-100,91,82,67,0.00,40.00,10,8,19,0.16
2013-11-24,36,34,33,28,24,19,83,66,54,0.00,40.00,10,6,17,0.02
2013-11-25,38,35,32,34,31,26,90,86,76,0.00,40.00,10,4,16,0.80
2013-11-26,53,42,36,35,31,26,89,69,41,0.00,40.00,13,10,25,0.01
2013-11-27,47,38,30,26,18,13,63,46,27,0.00,40.00,11,6,23,0.01
2013-11-28,55,41,30,26,22,14,63,48,29,0.00,40.00,9,5,15,0.00
2013-11-29,59,46,34,40,33,23,88,61,40,0.00,40.00,9,5,17,0.00
2013-11-30,66,54,47,51,41,-100,80,65,54,0.00,40.00,10,8,22,0.00
2013-12-1,68,61,56,56,53,51,89,77,61,0.00,40.00,11,7,21,0.00
2013-12-2,71,55,43,53,45,37,93,73,43,0.00,40.00,7,3,13,0.00
2013-12-3,77,60,42,47,39,34,91,54,22,0.00,40.00,9,5,15,0.00
2013-12-4,80,66,54,59,46,40,71,49,36,0.00,40.00,8,6,15,0.00
2013-12-5,54,36,30,42,26,19,87,67,52,0.00,40.00,14,10,25,0.00
2013-12-6,32,28,25,29,23,19,89,84,78,0.00,40.00,10,2,20,0.31
2013-12-7,26,23,20,23,16,-100,87,78,75,0.00,40.00,8,2,13,0.00
2013-12-8,32,29,26,29,26,22,90,87,85,0.00,40.00,5,3,9,0.10
2013-12-9,32,31,30,30,26,21,91,82,67,0.00,40.00,9,6,17,0.02
2013-12-10,39,30,23,23,18,14,76,62,42,0.00,40.00,10,6,19,0.48
2013-12-11,49,36,24,29,25,19,86,66,42,0.00,40.00,7,4,12,0.30
2013-12-12,50,36,23,32,28,19,87,71,50,0.00,40.00,3,2,9,0.01
2013-12-13,47,44,40,47,38,30,99,81,60,0.00,40.00,8,6,18,0.06
2013-12-14,47,42,34,47,35,-100,100,82,61,0.00,40.00,13,7,26,0.01
2013-12-15,63,43,27,34,29,25,94,63,28,0.00,40.00,8,3,14,0.01
2013-12-16,67,52,40,36,33,31,69,51,30,0.00,40.00,10,6,17,0.00
2013-12-17,71,55,39,39,36,33,81,51,27,0.00,40.00,5,3,14,0.00
2013-12-18,70,59,41,47,42,35,89,54,33,0.00,40.00,13,8,25,0.00
2013-12-19,73,63,55,62,55,46,87,76,58,0.00,40.00,15,12,31,0.00
2013-12-20,69,58,36,64,54,35,99,87,80,0.00,40.00,13,7,25,0.00
2013-12-21,56,43,35,54,41,-100,100,96,81,0.00,40.00,9,3,20,1.44
2013-12-22,45,39,33,45,32,26,100,77,57,0.00,40.00,11,7,22,0.06
2013-12-23,48,34,23,29,26,22,95,75,46,0.00,40.00,6,2,12,0.00
2013-12-24,53,39,23,34,29,22,97,70,45,0.00,40.00,13,6,21,0.00
2013-12-25,61,46,35,44,35,29,86,68,47,0.00,40.00,9,5,19,0.00
2013-12-26,54,39,28,35,32,28,100,79,42,0.00,40.00,5,2,10,0.00
2013-12-27,60,44,30,40,36,30,100,77,40,0.00,40.00,4,2,8,0.00
2013-12-28,62,48,35,42,36,-100,100,70,42,0.00,40.00,9,4,15,0.00
2013-12-29,50,42,31,44,36,25,99,81,51,0.00,40.00,11,6,22,0.00
2013-12-30,45,34,28,26,20,17,82,57,36,0.00,40.00,9,4,17,0.00
2013-12-31,56,39,26,28,25,21,89,59,31,0.00,40.00,10,4,17,0.00
2014-1-1,71,50,36,46,35,27,73,56,40,0.00,40.00,11,8,27,0.00
2014-1-2,44,33,25,29,19,16,74,58,35,0.00,40.00,14,7,26,0.00